Temp_Advection
nan nan nan nan nan nan nan nan nan nan nan nan nan nan nan nan nan nan nan nan nan nan nan nan nan nan nan nan nan nan nan nan nan nan nan nan nan nan nan nan nan nan nan nan nan nan nan nan nan nan nan nan nan nan
nan 0 0 0 0 0 0 0 0 0 0 0 0 0 0 0 0 -0 -0 -0 0 -0 -0 -0 0 0 0 0 -0 -0 0 0 0 0 0 -0 0 0 -0 -0 -0 -0 -0 -0 -0 -0 -1 -1 -1 -1 -1 -1 -1 nan
nan 0 0 0 0 0 0 0 0 0 0 0 -0 0 1 1 0 0 0 -0 -0 -0 -0 -0 -0 -0 0 0 0 0 0 0 0 0 0 0 0 -0 0 0 -0 -1 -1 -0 0 -0 -0 -0 -0 -1 -0 -0 -1 nan
nan 0 0 0 0 0 0 0 0 0 0 0 0 0 0 0 0 0 0 0 -0 0 -0 -0 -0 -0 -0 0 0 0 0 0 0 -0 1 0 -0 -0 -0 -0 -1 -0 -0 -1 0 -0 -1 0 -0 -0 -1 -0 -0 nan
nan 0 0 0 0 0 0 -0 0 0 0 0 0 0 0 0 0 0 0 0 0 0 -0 -0 -0 -0 -0 0 0 0 0 0 0 0 0 -0 -0 -0 -1 -0 -0 -0 -0 -0 -0 -0 -0 -1 -0 -0 -1 -0 -0 nan
nan 0 0 0 0 0 0 0 0 0 -0 -0 -0 0 0 0 0 0 0 0 -0 0 -0 -0 -0 -0 0 0 0 0 0 0 -0 0 -0 0 -0 -0 -0 -0 -0 -0 -0 -0 -0 -0 0 -0 -0 -0 -0 0 0 nan
nan 0 0 0 0 0 0 0 0 -0 -0 0 -0 -0 -0 0 0 0 0 0 0 -0 -0 -0 -1 -0 -0 0 0 0 0 0 -0 0 0 -0 -0 -1 -0 -0 -0 -0 0 -0 -0 -0 -0 -0 -0 -0 0 0 0 nan
nan 0 0 0 0 0 0 0 -0 -0 -0 -0 0 -0 0 -0 -0 0 0 0 0 0 0 -0 -1 -0 -0 -0 0 0 0 -0 0 0 -0 -0 -0 -1 -0 -0 -0 -0 -0 -0 -0 -0 -0 -0 0 -0 -0 -0 -0 nan
nan 0 0 0 0 0 0 0 -0 -0 -0 0 0 -0 -0 0 0 0 0 0 0 0 0 -0 -0 -0 -0 -0 -0 -0 0 -0 -0 -0 -0 -0 -0 -0 -0 -0 -0 -0 -0 -1 -0 -0 -0 -0 -0 -0 -0 -1 -1 nan
nan 0 1 1 0 0 0 0 -0 -0 0 0 0 0 -0 0 0 -0 -0 0 0 0 0 -0 0 -0 -0 -0 -0 -0 -0 0 -0 -0 -0 -0 -0 -0 -0 -0 -0 -0 -0 -0 -0 -0 -1 -0 -0 -0 -0 -0 -0 nan
nan 1 1 0 0 0 0 -0 -0 -0 0 0 0 0 0 0 0 0 0 -0 -0 -0 -0 -0 0 0 -0 -0 -0 -0 0 -0 0 -0 -0 -0 -0 0 -0 0 0 -0 -0 -0 -0 -0 -0 -0 -0 -0 -0 -0 -0 nan
nan 1 1 0 0 0 -0 -0 -0 -0 0 0 0 -0 0 0 -0 -1 0 -0 0 -0 -0 -0 -0 0 0 0 0 0 0 -0 -0 -0 -0 -0 0 -0 -0 -0 -0 -0 -0 -0 -0 -0 -0 -0 -0 -0 -0 -0 -0 nan
nan 1 0 -0 -0 0 -0 -0 -0 0 0 0 0 0 0 0 -0 0 -0 0 -0 0 -0 -0 -0 -0 0 0 0 -0 -0 -0 0 -0 -0 0 -0 -0 -0 -0 -0 -0 -0 -0 -0 -0 -0 -0 -0 -0 -0 -0 -0 nan
nan 0 -0 -0 -0 0 -0 -0 0 0 0 0 0 0 0 0 0 0 0 -0 -0 0 -0 -0 -0 -0 0 -0 0 0 0 -0 -0 0 1 0 -0 -0 -0 -0 -0 -0 -0 -0 -0 -0 -0 -0 -0 -0 -0 -0 -0 nan
nan -0 -0 -0 0 -0 0 -0 0 0 0 0 0 0 0 0 0 0 0 -0 -0 0 0 0 0 0 -0 -0 -0 -0 -0 0 0 0 0 -0 0 -0 -0 -0 -0 -0 -0 -0 -0 -0 -0 -0 -0 -0 -0 -0 -0 nan
nan -0 -0 -0 0 0 0 0 0 0 0 0 0 -0 -0 -0 -0 0 0 0 0 0 0 -0 -0 0 0 0 -0 1 0 0 0 0 -0 0 -0 -0 -0 -0 -0 -0 -0 -0 -0 -0 -0 -0 -0 -0 -0 -0 -0 nan
nan -0 -0 0 0 0 0 0 0 0 0 1 0 0 0 -0 -0 0 0 0 0 0 0 0 0 1 -0 -0 0 0 0 0 0 0 0 0 -0 -0 -0 -0 -0 -0 -0 -0 -0 -0 -0 -0 -0 -0 -0 -0 -0 nan
nan -0 0 0 0 0 0 0 0 0 0 0 0 0 0 0 0 0 0 0 0 0 -0 0 0 -0 0 0 0 0 -0 -0 0 0 0 0 -0 -0 -0 -0 -0 -0 -0 -0 -0 -0 -0 -0 -0 -0 -0 -0 -0 nan
nan 0 0 0 0 0 0 0 0 0 -0 0 0 0 0 0 0 0 0 0 0 0 0 -0 -1 -0 -0 0 0 -0 -0 0 0 0 0 0 0 0 0 0 0 0 -0 -0 0 -0 -0 -0 -0 -0 -0 -1 -0 nan
nan 0 0 0 0 0 0 0 0 -0 -0 0 0 0 0 0 0 0 0 0 0 0 0 -0 -0 -0 -0 -0 -0 -0 -0 -0 -0 -0 0 0 0 0 0 -0 0 0 -0 -0 0 0 -0 -0 -0 -0 0 -0 -0 nan
nan 0 0 0 0 0 0 0 -0 -0 -0 0 -0 0 -0 0 0 0 0 0 0 0 0 -0 -0 0 0 0 -0 -0 -0 0 -0 -0 -0 -0 0 0 0 -0 0 0 -0 -0 -0 0 0 0 0 -0 -0 0 -0 nan
nan 0 0 0 0 0 -0 -0 -0 -0 -0 0 0 0 0 0 0 0 0 0 0 0 -0 0 0 0 0 0 -0 -0 0 0 0 0 0 -0 -1 -0 0 0 -0 0 0 0 0 0 0 0 0 -0 -0 -0 -0 nan
nan 0 0 0 0 -0 -0 0 0 -0 -0 0 0 -0 -0 0 0 0 0 0 0 0 0 0 0 0 0 0 0 -0 -0 -0 0 0 0 0 0 -0 -0 0 -0 -0 -0 0 0 0 0 0 0 -0 -0 0 -0 nan
nan 0 0 0 -0 -0 0 0 0 -0 -0 -0 -0 0 0 0 0 0 -0 -0 -0 -0 0 0 0 0 0 0 0 -0 -0 -0 0 0 0 -0 0 0 0 0 0 0 -0 -0 0 0 0 0 0 0 -0 -0 0 nan
nan -0 0 -0 0 -0 -0 -0 0 0 -0 -0 0 0 0 0 -0 -0 -0 -0 -0 -1 -0 -0 -0 -0 0 0 0 -0 -0 -0 -0 0 0 -0 -0 -0 0 0 0 0 0 -0 -0 0 0 0 0 0 -0 0 0 nan
nan -0 0 -0 0 0 0 -0 0 0 -0 -0 0 0 0 0 0 -0 -0 -0 -1 -1 -0 -0 -0 0 0 0 -0 -0 -0 -0 -0 -0 0 0 0 -0 -0 -0 0 0 0 0 0 -0 -0 0 0 0 0 0 0 nan
nan 0 0 0 0 0 -0 -0 0 -0 0 -0 -0 -0 0 -0 -0 -0 -0 -0 -0 0 0 0 0 0 0 0 0 -0 -0 -0 -0 -0 0 0 0 0 -0 -0 -0 -0 0 0 0 0 -0 -0 0 0 -0 -0 -0 nan
nan 0 -0 0 0 0 -0 -0 0 0 -0 0 -0 -0 -0 -0 -0 -0 0 0 0 0 0 0 0 0 0 0 -0 0 0 0 -0 0 0 0 0 0 0 0 0 0 0 0 0 0 0 -0 -0 -0 0 0 0 nan
nan 0 -0 -0 0 -0 -0 0 0 0 0 -0 -0 -0 -0 0 0 0 0 0 0 0 0 0 0 0 0 0 0 0 0 -0 -0 -0 -0 -0 0 0 0 0 0 0 0 0 0 0 1 0 -0 0 0 0 0 nan
nan 0 -0 -0 0 0 0 0 0 0 0 0 0 -0 -0 0 -0 -0 0 -0 -0 -0 0 0 -0 0 0 0 -0 0 0 0 0 0 -0 -0 0 0 0 0 0 0 0 0 0 0 0 0 0 0 0 0 0 nan
nan 0 -0 -1 -0 0 0 0 0 0 0 0 0 0 0 0 -0 -0 -0 -0 -0 -0 0 0 0 0 0 0 -0 -0 0 0 0 0 0 0 0 0 0 0 0 0 0 0 0 1 0 0 0 0 0 0 1 nan
nan -0 -0 -0 -0 0 0 0 0 0 0 0 0 0 0 0 -0 -0 -0 -0 0 0 0 0 0 0 0 0 0 0 -0 0 0 0 0 0 -0 0 0 0 0 0 0 0 1 1 1 1 1 0 0 0 0 nan
nan nan nan nan nan nan nan nan nan nan nan nan nan nan nan nan nan nan nan nan nan nan nan nan nan nan nan nan nan nan nan nan nan nan nan nan nan nan nan nan nan nan nan nan nan nan nan nan nan nan nan nan nan nan
Wind_Speed
14 13 11 10 9 8 8 8 9 10 12 13 12 11 10 8 6 9 6 6 6 5 15 15 8 10 14 9 1 11 7 2 1 4 1 2 1 3 2 4 3 2 5 2 3 3 2 29 5 7 8 15 20 22
16 14 12 11 10 9 9 9 9 10 12 14 14 12 12 9 8 7 6 6 7 10 12 20 23 18 14 15 14 4 4 3 4 2 1 2 3 2 3 3 3 3 2 3 4 3 7 10 13 10 15 16 20 23
18 15 13 12 11 11 10 9 9 10 12 14 14 13 13 8 5 8 8 6 8 9 12 4 3 5 7 6 6 5 3 3 4 9 5 2 3 1 2 3 1 3 13 1 2 2 10 8 10 22 24 21 22 21
19 16 14 13 13 12 10 9 9 11 11 14 14 15 14 8 3 5 3 6 6 5 2 4 4 13 6 4 5 8 14 13 12 11 6 2 2 3 2 3 4 4 10 7 3 7 10 6 23 27 29 24 23 23
19 17 15 14 13 12 10 10 10 11 12 15 15 15 12 3 3 5 6 8 9 6 3 7 14 2 5 4 8 9 10 9 5 3 2 3 1 4 4 3 3 8 4 3 3 10 7 16 24 21 27 26 24 25
20 18 16 15 13 12 11 10 10 11 13 15 15 14 8 3 4 4 3 4 5 2 2 3 4 4 5 11 8 6 5 3 4 3 3 1 3 4 2 2 3 12 11 4 6 21 20 13 16 23 24 24 22 20
21 19 16 15 14 12 11 9 9 11 13 14 14 13 3 4 7 6 3 3 7 3 3 5 6 2 7 8 6 4 3 3 3 2 1 2 6 6 2 2 13 16 14 5 15 17 6 16 17 22 21 21 19 20
22 19 17 15 13 11 8 8 8 10 11 12 10 2 6 6 6 5 6 7 6 3 3 0 4 3 7 5 4 5 3 3 3 3 2 3 3 5 3 7 14 16 13 2 17 10 11 13 17 20 21 22 23 24
22 18 16 14 12 9 7 7 8 9 10 8 0 6 5 2 2 3 1 3 6 3 2 2 1 3 9 4 5 3 3 2 3 1 3 3 2 4 3 10 14 15 12 15 16 10 14 16 19 21 22 24 25 25
20 18 16 13 10 8 7 6 7 7 8 3 3 4 3 2 3 6 1 2 3 2 0 1 1 2 6 5 3 7 2 1 2 1 4 3 2 6 10 9 10 13 13 14 17 19 20 19 20 20 21 20 21 22
20 18 15 12 9 6 5 7 6 6 5 3 4 5 4 4 4 2 1 1 2 2 2 1 1 2 4 1 2 3 1 1 2 2 2 2 2 4 11 12 11 11 12 11 10 10 11 13 16 18 18 19 19 20
20 18 14 10 7 6 6 7 6 6 3 4 3 4 4 3 2 4 1 3 1 2 1 1 2 4 4 2 1 2 1 2 4 2 3 1 2 6 9 10 11 11 11 11 11 12 12 12 13 14 15 17 17 18
18 15 13 10 8 7 6 6 6 4 2 4 3 4 3 1 3 4 4 3 0 2 0 4 4 3 2 3 2 2 1 4 0 3 1 3 3 7 10 11 11 12 12 12 12 11 12 12 12 14 15 15 15 16
17 15 13 10 7 6 6 5 4 3 3 3 4 2 3 2 4 3 3 3 4 2 3 6 4 2 1 1 1 1 3 2 1 1 3 2 6 8 9 10 11 12 13 13 13 14 14 14 14 13 14 15 15 16
16 14 12 8 8 6 4 4 4 6 5 5 4 3 4 4 3 7 8 6 2 2 4 2 2 1 2 1 1 2 4 3 4 3 2 2 6 8 9 10 11 11 13 14 14 14 14 14 14 14 14 15 15 13
17 14 12 9 7 4 4 4 6 7 4 4 4 3 4 3 3 7 6 5 2 3 0 2 2 3 2 1 1 4 3 4 2 2 2 4 6 7 9 11 12 12 13 14 14 14 14 15 15 15 14 14 14 13
15 12 10 9 4 4 5 7 6 6 6 4 2 4 6 2 6 8 7 4 1 2 2 3 2 6 1 2 2 3 4 2 4 3 6 7 7 9 12 13 14 14 14 14 14 14 14 14 15 14 13 14 13 13
16 12 8 6 5 5 7 8 5 4 3 2 3 4 5 5 8 7 6 3 3 3 3 3 5 2 4 3 3 3 3 3 4 5 6 5 8 11 14 17 17 15 15 15 15 14 13 13 14 14 15 15 14 12
11 8 7 7 7 6 5 6 4 3 2 3 5 7 5 5 7 6 4 4 4 4 4 4 3 3 3 4 3 7 4 2 2 4 7 9 12 15 17 17 16 15 14 15 15 14 13 13 15 15 15 16 16 15
11 9 9 8 8 6 4 4 4 2 4 5 5 7 5 4 7 5 4 4 5 3 2 2 4 4 4 6 6 6 3 0 4 6 5 7 11 14 15 17 17 17 16 15 14 11 13 14 14 13 13 14 16 16
10 10 9 7 7 6 3 5 3 4 6 4 9 5 4 6 4 4 3 4 4 3 3 4 7 9 10 9 7 5 2 4 6 9 13 18 18 20 19 17 16 15 16 15 13 11 12 14 12 13 14 14 16 17
10 10 7 7 5 5 3 3 5 7 4 7 7 4 4 3 2 2 2 3 3 3 4 9 13 12 10 8 5 3 2 5 8 11 14 17 20 19 16 14 15 13 13 13 13 13 12 12 13 15 16 16 16 19
10 7 5 5 3 3 2 9 2 3 3 4 5 3 1 1 1 1 1 3 3 6 11 15 12 11 9 6 4 2 3 6 11 14 16 17 16 17 17 14 15 15 14 11 14 15 13 12 14 17 18 17 20 22
7 6 4 4 3 4 7 2 3 4 4 2 2 1 1 2 1 0 2 3 5 13 15 14 12 10 9 7 4 1 5 10 15 15 15 18 17 15 16 16 15 14 15 15 14 14 13 14 17 18 18 19 22 25
4 2 2 3 4 4 3 2 1 2 2 1 2 0 2 2 2 1 2 3 13 18 16 15 13 11 8 6 1 4 9 13 18 18 12 16 18 18 17 14 14 13 14 14 15 15 16 18 19 19 19 22 26 25
3 1 2 3 2 3 5 4 4 4 3 2 2 3 2 2 1 4 3 4 14 20 18 16 15 13 9 4 1 7 12 16 19 18 16 17 18 19 20 17 15 10 13 16 19 20 21 21 21 22 26 27 24 20
5 3 3 5 5 6 5 4 4 3 3 5 4 4 2 2 4 3 3 6 12 15 15 15 13 11 8 4 5 11 16 19 20 19 18 17 15 16 15 15 14 14 17 19 21 21 23 25 27 27 27 22 23 25
4 5 4 7 4 3 4 3 3 5 3 6 10 3 6 6 4 4 3 8 10 15 17 16 15 12 8 7 9 15 18 20 20 20 17 14 12 13 12 14 17 18 20 20 22 25 26 27 26 25 27 26 24 24
4 8 7 4 4 3 2 2 4 3 5 10 3 2 3 3 4 4 4 9 12 15 15 14 14 12 11 11 13 17 21 21 21 19 18 18 17 14 14 14 12 13 18 20 19 22 23 22 24 23 23 28 30 28
4 8 5 3 3 2 1 3 4 7 6 6 4 3 3 3 4 5 6 9 12 12 12 12 13 12 13 14 17 15 15 16 14 16 20 21 20 18 15 12 15 17 20 24 25 26 23 22 22 21 21 22 22 23
8 4 4 4 3 2 5 7 7 6 5 4 3 3 3 3 4 6 8 10 11 11 11 9 10 11 13 14 16 18 14 14 16 18 19 18 18 17 15 18 19 22 25 27 27 27 26 25 24 24 22 22 20 20
4 3 4 3 2 8 9 3 3 2 3 3 2 4 4 3 4 6 8 9 9 8 6 7 7 7 10 11 13 13 16 17 18 17 16 17 18 17 21 21 23 26 29 27 25 25 25 24 24 23 24 23 21 20
5 5 5 6 5 4 5 4 2 2 2 2 2 4 4 4 3 6 8 8 8 6 4 4 5 7 8 9 10 13 15 17 16 16 17 16 17 17 16 20 25 26 23 21 21 21 22 22 22 22 21 21 20 18
Wind_Direction
239 233 240 252 261 261 277 295 311 322 326 326 327 327 323 297 277 289 308 302 300 263 285 281 291 292 298 288 268 315 321 321 330 26 241 313 309 272 331 260 252 263 317 333 339 321 297 355 15 49 316 317 328 329
236 234 241 250 255 260 275 292 306 318 320 325 330 336 334 321 324 293 288 292 285 271 269 293 298 299 284 283 281 280 263 294 336 328 334 285 269 331 190 288 326 333 358 303 11 26 36 45 79 17 350 326 331 327
236 234 239 248 255 262 276 289 302 313 321 327 333 332 331 318 297 300 263 285 293 275 304 305 301 336 309 301 295 272 259 321 292 317 303 257 251 174 268 262 338 47 17 25 294 64 343 69 20 0 354 340 332 329
237 234 239 246 253 264 275 288 300 314 319 321 323 325 329 322 282 294 294 285 279 263 278 278 301 319 337 308 276 265 271 286 288 293 254 228 211 202 358 64 68 332 333 330 269 13 360 228 350 347 344 345 342 342
233 234 238 243 251 262 273 285 298 308 312 317 321 323 325 307 245 253 283 288 252 235 284 288 304 310 336 335 312 293 284 277 257 253 234 255 341 2 85 87 45 358 356 341 304 355 303 297 329 345 345 351 350 348
231 233 238 242 250 259 268 283 298 308 315 318 321 320 327 198 215 233 255 198 145 220 269 288 304 278 323 323 314 310 314 313 272 247 248 311 62 20 82 72 64 357 339 295 299 320 318 330 342 350 350 353 355 353
230 233 236 242 247 255 266 284 298 311 315 319 321 319 341 175 191 199 209 198 239 276 261 293 317 294 328 323 315 308 308 287 269 259 258 71 26 59 66 74 344 350 345 279 343 343 356 352 344 356 359 0 6 12
228 231 235 240 244 251 267 281 300 308 315 321 321 344 127 137 154 191 215 223 246 222 222 67 275 335 355 328 319 330 310 286 225 291 76 77 43 63 67 344 352 355 356 290 349 350 344 348 1 6 9 8 12 12
222 225 231 234 239 249 263 280 302 311 320 321 226 146 169 201 229 248 204 118 159 199 205 164 101 277 346 326 299 313 325 352 316 68 74 82 352 53 2 354 353 354 350 330 339 346 356 3 4 8 9 12 12 10
218 222 222 223 233 251 261 288 303 313 322 282 192 207 220 229 181 144 125 171 205 208 287 84 267 299 333 339 323 342 358 318 343 347 103 67 82 98 20 358 342 346 343 341 349 350 349 353 357 3 9 10 11 10
214 213 212 216 229 250 265 297 299 313 311 223 205 213 187 158 164 171 175 73 339 55 9 6 306 286 332 32 268 355 258 305 17 256 116 92 92 349 354 359 353 351 349 346 342 338 338 339 346 353 359 3 6 8
206 201 205 211 224 238 273 293 298 308 266 231 216 151 153 163 142 91 288 319 103 225 297 291 312 292 287 274 266 321 233 36 249 345 75 73 245 333 342 353 352 347 348 346 343 341 341 341 342 347 350 356 1 1
193 195 201 214 228 233 287 292 302 301 218 181 170 158 173 202 48 151 211 284 297 202 44 344 316 265 254 259 253 45 24 229 257 40 144 213 282 339 342 342 348 347 344 344 345 343 341 340 339 341 348 351 354 358
184 192 202 214 232 241 287 285 291 220 198 192 178 243 170 243 243 181 173 156 148 162 307 315 272 299 285 357 141 79 253 41 52 210 228 233 327 335 337 335 333 339 340 339 338 340 341 343 344 341 343 347 348 352
183 194 205 218 220 257 277 275 242 201 201 211 189 230 203 172 125 137 130 133 141 294 303 257 248 256 328 14 70 4 347 273 211 222 213 299 323 331 337 336 332 330 332 333 333 332 334 337 339 338 336 342 342 341
188 201 211 215 221 264 259 219 194 198 221 208 208 131 147 153 156 163 157 159 198 307 228 125 103 58 280 145 38 213 126 233 218 214 251 302 321 337 341 336 331 324 322 323 324 324 324 327 334 339 339 334 338 342
193 200 197 197 233 244 227 200 204 213 209 217 166 175 175 106 151 164 163 173 219 177 189 124 112 219 83 41 274 203 211 212 184 230 278 293 303 322 331 331 328 324 323 322 321 321 316 319 329 328 332 343 348 345
199 188 189 209 220 225 204 191 217 208 185 172 181 172 170 149 136 139 153 156 161 175 164 190 131 110 196 195 248 209 195 228 272 281 298 278 292 312 320 321 322 321 320 319 319 320 314 315 322 327 333 337 341 339
182 189 203 207 203 193 192 192 196 174 134 155 156 158 149 139 130 135 145 152 157 162 156 143 91 181 219 208 184 172 189 215 246 278 291 293 305 311 316 317 319 317 315 316 316 316 311 312 318 322 326 330 338 342
187 194 197 194 191 192 178 158 187 151 143 162 158 153 141 142 145 136 146 173 174 189 172 153 197 184 159 161 155 164 173 44 356 341 342 336 320 324 326 324 325 323 321 320 315 306 303 304 308 310 321 327 333 337
184 185 179 184 181 199 167 153 134 121 142 152 144 150 125 145 155 175 185 184 195 211 184 189 160 153 148 149 144 136 92 22 1 347 337 337 339 336 332 327 324 323 320 322 319 313 296 305 311 313 320 327 329 334
173 168 170 177 185 162 125 139 134 138 147 136 144 136 128 137 141 159 198 207 213 181 176 165 154 153 152 150 142 120 55 6 350 337 330 328 329 330 331 328 327 331 331 326 321 320 315 311 309 315 323 322 326 331
158 167 174 174 144 128 106 146 137 118 113 153 136 91 68 127 148 242 258 231 212 193 166 160 158 159 156 155 144 103 11 352 343 333 325 324 331 328 326 328 324 327 329 332 318 319 318 315 315 311 316 318 320 324
157 162 148 136 122 126 138 126 120 112 116 97 107 139 215 160 169 153 248 239 195 174 169 169 167 166 165 160 148 30 352 347 343 340 325 323 330 329 324 319 315 315 318 326 323 318 315 317 318 317 315 314 318 320
164 55 144 80 125 123 120 123 103 109 123 125 107 194 211 160 78 334 240 228 191 180 178 179 178 177 178 169 159 354 347 343 339 340 338 327 325 322 324 318 309 306 306 313 323 323 320 316 314 314 314 317 320 324
95 116 105 145 144 163 166 144 181 162 126 134 189 143 134 107 93 243 228 209 190 189 190 186 181 180 177 187 317 338 340 336 337 338 338 330 324 320 322 325 326 330 312 316 319 320 319 320 319 318 316 318 318 313
152 171 139 140 136 136 98 100 131 131 153 166 172 156 126 147 240 239 209 185 185 187 183 183 188 189 202 234 311 331 333 335 334 333 332 328 322 319 318 322 324 322 318 317 315 316 315 316 316 317 319 321 321 316
109 144 155 150 115 137 123 114 153 188 174 163 150 178 175 194 216 166 167 179 180 181 187 192 196 204 227 271 308 323 328 330 330 329 331 335 335 331 328 320 316 315 318 321 320 317 315 315 316 322 321 318 313 314
97 128 128 96 101 91 111 153 175 167 159 173 167 182 197 175 173 168 173 180 182 186 195 201 210 228 252 281 309 322 325 327 327 331 330 334 338 344 333 328 327 327 318 314 317 317 318 315 313 308 303 299 302 306
128 146 106 102 111 147 150 150 155 157 161 160 152 150 160 164 183 187 179 180 188 194 202 215 231 254 274 293 307 316 326 323 325 326 326 333 337 342 342 338 333 329 326 324 327 329 328 320 318 316 312 311 311 310
135 124 96 82 98 129 139 138 144 145 147 155 155 153 147 152 173 182 182 184 192 199 211 230 255 273 286 298 308 319 331 330 328 326 325 328 333 338 341 342 337 332 329 331 332 332 331 329 327 326 326 324 323 319
124 110 121 110 116 138 133 142 146 134 143 149 153 163 171 173 187 184 188 188 191 197 214 246 270 279 284 298 308 312 318 322 323 323 323 325 327 336 343 336 336 326 328 330 332 333 333 332 331 331 330 330 330 328
117 115 101 107 128 170 160 149 119 98 129 160 172 181 195 199 204 196 188 186 186 195 244 275 281 287 295 300 308 312 313 321 326 329 329 326 320 320 322 336 317 318 327 332 334 334 336 338 337 336 333 332 333 332
Height
1520 1520 1520 1519 1519 1519 1519 1519 1518 1517 1515 1514 1511 1509 1508 1507 1506 1506 1506 1505 1506 1502 1497 1497 1497 1496 1495 1493 1492 1487 1484 1481 1479 1485 1481 1474 1482 1475 1474 1467 1460 1457 1452 1443 1446 1448 1435 1452 1440 1445 1466 1458 1453 1446
1516 1517 1517 1517 1517 1516 1516 1516 1515 1514 1513 1511 1509 1506 1505 1504 1503 1501 1502 1503 1503 1502 1496 1495 1493 1492 1490 1489 1488 1486 1485 1483 1481 1482 1478 1475 1471 1479 1478 1472 1459 1461 1470 1461 1463 1461 1469 1466 1467 1469 1464 1459 1452 1446
1513 1513 1514 1514 1514 1514 1514 1513 1513 1511 1510 1508 1506 1503 1501 1501 1500 1499 1499 1500 1500 1498 1492 1490 1489 1489 1487 1486 1486 1486 1483 1483 1482 1482 1479 1474 1476 1469 1470 1469 1466 1470 1471 1467 1466 1470 1469 1468 1468 1465 1461 1457 1452 1446
1508 1509 1510 1510 1511 1512 1511 1511 1509 1508 1507 1505 1503 1500 1498 1497 1497 1497 1497 1497 1498 1497 1494 1489 1488 1486 1485 1483 1484 1484 1482 1482 1480 1479 1478 1475 1474 1466 1462 1471 1478 1486 1479 1478 1468 1470 1466 1465 1466 1464 1459 1455 1449 1444
1504 1505 1506 1506 1508 1508 1508 1508 1506 1505 1503 1501 1499 1497 1494 1493 1495 1495 1495 1494 1494 1498 1494 1488 1486 1484 1483 1482 1482 1480 1479 1478 1477 1475 1476 1475 1467 1468 1474 1479 1491 1491 1490 1487 1479 1482 1481 1474 1468 1464 1459 1453 1448 1443
1499 1501 1502 1503 1503 1505 1505 1504 1503 1502 1500 1497 1495 1492 1491 1491 1492 1493 1493 1494 1493 1493 1492 1489 1483 1482 1483 1481 1478 1476 1475 1474 1475 1473 1472 1472 1471 1470 1477 1489 1494 1493 1490 1488 1486 1481 1477 1474 1470 1465 1459 1453 1448 1444
1494 1496 1498 1499 1500 1501 1502 1500 1500 1498 1496 1493 1491 1488 1487 1489 1490 1491 1492 1492 1491 1492 1492 1488 1483 1482 1481 1477 1476 1475 1474 1474 1474 1472 1470 1472 1471 1472 1483 1490 1493 1490 1487 1486 1485 1479 1476 1473 1470 1465 1460 1454 1449 1445
1488 1491 1493 1495 1496 1498 1498 1497 1496 1495 1492 1490 1488 1485 1486 1487 1488 1489 1489 1488 1489 1491 1490 1491 1485 1481 1480 1478 1477 1474 1474 1472 1471 1470 1470 1472 1476 1478 1492 1494 1493 1490 1486 1485 1484 1481 1479 1475 1470 1465 1461 1455 1449 1445
1483 1486 1489 1491 1492 1494 1495 1494 1493 1491 1489 1486 1486 1486 1487 1487 1487 1486 1486 1486 1488 1492 1488 1489 1490 1491 1482 1479 1476 1475 1473 1474 1472 1470 1472 1474 1485 1494 1496 1494 1492 1490 1489 1486 1483 1480 1477 1474 1469 1465 1461 1456 1451 1447
1478 1481 1484 1487 1489 1490 1491 1491 1490 1488 1486 1484 1485 1486 1485 1485 1485 1487 1486 1488 1488 1489 1488 1487 1487 1486 1485 1481 1477 1477 1474 1476 1481 1474 1473 1480 1492 1496 1495 1494 1492 1490 1488 1485 1481 1477 1475 1472 1469 1465 1462 1459 1455 1450
1473 1477 1480 1482 1485 1487 1487 1488 1487 1485 1484 1483 1483 1483 1482 1483 1484 1485 1485 1486 1488 1488 1487 1486 1486 1486 1484 1485 1482 1481 1480 1478 1483 1475 1476 1482 1492 1496 1494 1492 1491 1489 1486 1484 1482 1480 1477 1474 1471 1466 1463 1460 1456 1452
1469 1473 1476 1479 1481 1483 1484 1484 1484 1482 1481 1481 1481 1481 1482 1483 1483 1485 1490 1488 1488 1488 1486 1485 1486 1486 1483 1482 1481 1480 1481 1481 1484 1474 1479 1490 1496 1494 1492 1490 1488 1487 1485 1483 1481 1478 1476 1473 1470 1467 1464 1460 1457 1453
1465 1470 1473 1476 1478 1479 1480 1481 1480 1479 1479 1478 1480 1480 1480 1482 1486 1486 1491 1489 1488 1484 1485 1485 1485 1483 1482 1481 1480 1480 1482 1482 1475 1483 1490 1496 1493 1492 1490 1488 1486 1484 1483 1481 1479 1477 1475 1472 1469 1467 1464 1460 1457 1454
1462 1466 1470 1472 1474 1476 1477 1477 1477 1477 1477 1478 1478 1480 1478 1481 1479 1477 1478 1479 1482 1483 1484 1483 1482 1482 1480 1480 1481 1482 1478 1477 1482 1490 1492 1491 1490 1488 1488 1486 1484 1482 1480 1478 1477 1475 1473 1471 1468 1466 1463 1460 1457 1454
1459 1463 1466 1469 1472 1473 1473 1474 1474 1475 1476 1476 1475 1475 1476 1473 1474 1475 1476 1478 1480 1480 1480 1480 1481 1483 1481 1481 1481 1482 1482 1490 1492 1488 1489 1488 1487 1486 1485 1484 1482 1480 1478 1476 1474 1472 1471 1469 1466 1464 1461 1458 1455 1453
1455 1461 1462 1466 1468 1469 1469 1470 1472 1474 1473 1472 1470 1471 1471 1472 1474 1474 1475 1476 1478 1479 1479 1480 1482 1483 1484 1485 1484 1490 1494 1487 1488 1487 1486 1486 1486 1484 1483 1482 1480 1478 1475 1474 1472 1470 1468 1466 1464 1462 1460 1457 1454 1451
1453 1456 1460 1462 1464 1466 1466 1468 1470 1470 1469 1468 1467 1468 1470 1469 1469 1471 1472 1475 1477 1479 1479 1479 1484 1479 1485 1491 1492 1490 1491 1486 1486 1487 1487 1485 1484 1482 1481 1479 1478 1475 1472 1470 1469 1468 1466 1464 1462 1460 1458 1456 1453 1451
1451 1454 1457 1459 1461 1463 1463 1465 1466 1465 1465 1466 1467 1468 1468 1469 1469 1470 1473 1475 1477 1477 1477 1478 1479 1486 1487 1486 1487 1484 1484 1485 1485 1486 1486 1484 1482 1481 1479 1476 1475 1473 1470 1467 1466 1464 1463 1462 1460 1458 1456 1454 1451 1449
1448 1452 1454 1456 1459 1460 1461 1463 1464 1462 1464 1465 1466 1467 1468 1469 1471 1472 1473 1474 1474 1475 1476 1476 1480 1485 1481 1480 1480 1481 1484 1484 1485 1485 1485 1483 1481 1478 1476 1474 1472 1469 1467 1464 1463 1462 1460 1459 1457 1455 1453 1451 1449 1446
1446 1449 1451 1453 1455 1457 1458 1460 1461 1461 1463 1465 1467 1468 1469 1470 1471 1471 1472 1473 1474 1474 1474 1475 1475 1474 1476 1478 1479 1481 1484 1484 1483 1484 1483 1482 1479 1476 1473 1470 1467 1465 1463 1461 1460 1459 1457 1456 1455 1453 1451 1449 1446 1444
1444 1446 1449 1450 1452 1454 1455 1456 1458 1461 1462 1464 1466 1467 1468 1469 1470 1471 1471 1472 1472 1471 1471 1471 1472 1474 1476 1478 1480 1482 1483 1483 1482 1482 1480 1477 1475 1472 1469 1467 1464 1462 1459 1458 1457 1456 1455 1453 1452 1450 1448 1446 1443 1441
1440 1443 1446 1447 1448 1450 1453 1455 1457 1460 1463 1464 1466 1467 1468 1470 1469 1470 1470 1470 1470 1469 1470 1470 1472 1475 1478 1479 1480 1481 1482 1482 1481 1480 1478 1475 1472 1469 1467 1465 1462 1459 1457 1456 1454 1453 1452 1450 1449 1447 1444 1442 1440 1438
1438 1441 1443 1445 1447 1449 1456 1456 1458 1460 1462 1465 1466 1467 1469 1470 1470 1471 1470 1469 1468 1468 1469 1470 1472 1475 1478 1480 1481 1482 1482 1481 1480 1478 1475 1472 1470 1467 1464 1462 1459 1457 1456 1455 1452 1450 1449 1447 1446 1443 1441 1438 1436 1433
1436 1438 1439 1441 1445 1451 1455 1457 1458 1459 1461 1463 1465 1468 1469 1470 1470 1470 1469 1466 1465 1466 1468 1470 1473 1475 1477 1479 1480 1480 1480 1480 1478 1475 1471 1468 1466 1465 1462 1459 1457 1455 1454 1452 1450 1448 1446 1444 1442 1440 1437 1434 1432 1429
1435 1439 1441 1444 1446 1449 1453 1456 1457 1458 1461 1465 1467 1468 1468 1468 1470 1471 1468 1463 1463 1465 1468 1470 1472 1475 1477 1478 1479 1478 1478 1478 1475 1472 1469 1466 1464 1461 1459 1457 1454 1452 1451 1449 1447 1445 1443 1441 1438 1435 1433 1430 1426 1422
1433 1438 1441 1441 1445 1445 1448 1452 1454 1456 1459 1464 1466 1467 1467 1468 1470 1465 1461 1459 1460 1463 1466 1469 1472 1474 1476 1477 1477 1476 1476 1475 1472 1468 1466 1463 1461 1457 1454 1452 1450 1450 1448 1446 1443 1441 1438 1436 1433 1430 1427 1424 1421 1418
1432 1437 1438 1441 1442 1444 1447 1450 1452 1453 1457 1458 1462 1466 1466 1466 1466 1459 1458 1458 1460 1463 1466 1469 1472 1474 1475 1475 1475 1473 1472 1471 1468 1465 1462 1460 1457 1454 1452 1449 1447 1447 1444 1442 1439 1437 1433 1431 1428 1424 1420 1417 1415 1412
1429 1432 1436 1440 1441 1443 1445 1448 1450 1451 1451 1452 1456 1459 1458 1457 1457 1456 1457 1458 1460 1463 1465 1468 1470 1472 1472 1473 1472 1471 1469 1467 1464 1462 1459 1457 1454 1451 1449 1447 1445 1443 1440 1437 1434 1431 1428 1425 1421 1418 1415 1410 1407 1405
1429 1432 1436 1440 1442 1443 1445 1447 1447 1448 1450 1451 1452 1453 1453 1454 1455 1455 1456 1458 1460 1462 1465 1466 1468 1469 1470 1470 1469 1467 1465 1462 1460 1458 1456 1453 1450 1449 1445 1443 1441 1440 1437 1434 1431 1428 1424 1421 1418 1415 1410 1405 1402 1399
1430 1432 1435 1438 1440 1444 1445 1446 1447 1448 1449 1450 1451 1452 1453 1453 1454 1454 1456 1457 1460 1462 1463 1465 1466 1467 1467 1467 1466 1465 1463 1460 1458 1456 1453 1449 1446 1444 1442 1440 1438 1436 1432 1428 1424 1421 1418 1414 1410 1407 1403 1400 1396 1392
1430 1433 1435 1438 1442 1444 1444 1446 1448 1449 1450 1450 1450 1452 1452 1453 1454 1454 1455 1457 1459 1460 1461 1462 1463 1464 1464 1463 1461 1459 1458 1457 1456 1453 1449 1446 1443 1441 1439 1437 1434 1431 1427 1423 1419 1415 1411 1407 1404 1400 1397 1393 1391 1387
1431 1432 1434 1440 1444 1446 1447 1448 1449 1449 1450 1451 1451 1452 1453 1453 1454 1454 1455 1456 1457 1458 1459 1460 1460 1460 1460 1459 1458 1456 1454 1453 1451 1449 1446 1443 1440 1438 1436 1433 1430 1426 1422 1419 1415 1411 1407 1403 1400 1396 1392 1389 1386 1383
1432 1433 1436 1439 1444 1445 1447 1448 1448 1449 1450 1450 1451 1451 1452 1453 1452 1453 1453 1454 1455 1456 1457 1457 1457 1457 1457 1456 1455 1453 1452 1450 1447 1444 1442 1440 1438 1437 1434 1431 1427 1423 1419 1415 1412 1408 1405 1401 1397 1393 1390 1386 1383 1380